Flag Weather past 2 weeks in Santa Barbara, California, U.S.A.

Now
55 °F

Clear.


Feels Like: 55 °F
Forecast: 56 / 66 °F
Wind: No wind

Location: Santa Barbara Municipal Airport

Current Time: Oct 30, 2014 at 9:09:40 AM

Latest Report: Oct 30, 2014 at 7:53 AM


Visibility: 10 mi

Pressure: 29.97 "Hg

Humidity: 83%

Dew point: 50 °F

Location of Santa BarbaraLocation

Historic Weather in Santa Barbara — Graph

°F

Santa Barbara temperature yesterday

Maximum temperature yesterday: 78 °F (at 1:53 PM)
Minimum temperature yesterday: 52 °F (at 4:53 AM)
Average temperature yesterday: 63 °F

Past Weeks' High & Low Weather Summary

 TemperatureHumidityPressure
High78 °F (Oct 22, 3:53 PM)97% (Oct 25, 5:53 AM)30.06 "Hg (Oct 25, 5:53 AM)
Low49 °F (Oct 25, 5:53 AM)29% (Oct 27, 2:53 PM)29.80 "Hg (Oct 21, 4:53 PM)
Average65 °F68%29.93 "Hg
* Reported Oct 15 7:53 AM — Oct 30 7:53 AM, Santa Barbara, Weather by CustomWeather, © 2014

Note: Actual official high and low records may vary slightly from our data, if they occured in-between our weather recording intervals... More about our weather records

Advertising

Santa Barbara weather history for previous 24 hours

 ConditionsComfort  
Time TempWeatherWind HumidityBarometerVisibility
7:53 AM
Oct 30
55 °FClear.No wind83%29.97 "Hg10 mi
6:53 AM54 °FClear.No wind83%29.96 "Hg10 mi
5:53 AM55 °FClear.3 mph83%29.95 "Hg10 mi
4:53 AM52 °FClear.3 mph83%29.97 "Hg10 mi
3:53 AM55 °FClear.No wind77%29.96 "Hg10 mi
2:53 AM54 °FClear.3 mph80%29.97 "Hg10 mi
1:53 AM56 °FClear.No wind77%29.97 "Hg10 mi
12:53 AM53 °FClear.No wind80%29.98 "Hg10 mi
11:53 PM
Oct 29
53 °FClear.No wind77%29.98 "Hg10 mi
10:53 PM55 °FClear.No wind74%29.97 "Hg10 mi
9:53 PM57 °FClear.No wind74%29.96 "Hg10 mi
8:53 PM60 °FClear.No wind69%29.96 "Hg10 mi
7:53 PM64 °FClear.No wind61%29.95 "Hg10 mi
6:53 PM65 °FSunny.6 mph68%29.96 "Hg10 mi
5:53 PM69 °FSunny.6 mph61%29.97 "Hg10 mi
4:53 PM73 °FSunny.9 mph55%29.97 "Hg10 mi
3:53 PM75 °FSunny.7 mph52%29.98 "Hg10 mi
2:53 PM75 °FSunny.6 mph52%29.97 "Hg10 mi
1:53 PM78 °FSunny.6 mph40%29.98 "Hg10 mi
12:53 PM76 °FSunny.7 mph50%30.00 "Hg10 mi
11:53 AM75 °FSunny.6 mph50%30.03 "Hg10 mi
10:53 AM72 °FSunny.6 mph61%30.03 "Hg10 mi
9:53 AM72 °FSunny.3 mph53%30.03 "Hg10 mi
Weather by CustomWeather, © 2014

See weather overviewHow to use our weather pages